Terminal Aerodrome Forecast
Issued by NWS Pocatello, ID

Home | Current Version | Previous Version | Text Only | Print | Product List | Glossary On
Versions: 1 2 3 4 5 6 7 8 9 10 11 12 13 14
000
FTUS45 KPIH 232300
TAFIDA
TAF
KIDA 232327Z 2400/2424 23009KT P6SM SCT090 BKN200
     FM240300 VRB05KT P6SM FEW130 BKN200
     FM241900 21011KT P6SM FEW070=

USA.gov is the U.S. government's official web portal to all federal, state and local government web resources and services.